1516507201.07,59467,2.13,71622.3,-14.89,-18.17,-17.11,0,*64
1516507202.29,59468,2.19,71616.3,-14.89,-17.69,-16.83,0,*67
1516507203.54,59469,2.13,71612.8,-14.89,-17.21,-16.59,0,*6D
1516507204.74,59470,2.19,71604.5,-14.85,-16.79,-16.45,0,*68
1516507206.01,59471,2.19,71600.5,-14.85,-16.65,-16.23,0,*64
1516507207.23,59472,2.13,71594.0,-14.89,-16.37,-15.95,0,*62
1516507208.47,59473,2.19,71596.8,-14.85,-16.17,-15.95,0,*6D
1516507209.72,59474,2.13,71586.8,-14.89,-15.95,-15.81,0,*6A
1516507210.96,59475,2.13,71596.3,-14.89,-15.95,-15.81,0,*6B
1516507212.21,59476,2.13,71604.8,-14.89,-15.95,-15.81,0,*68
1516507213.45,59477,2.13,71606.5,-14.89,-15.89,-15.75,0,*6F
1516507214.69,59478,2.13,71610.0,-14.85,-15.89,-15.75,0,*6C
1516507215.91,59479,2.13,71608.5,-14.89,-16.03,-15.75,0,*60
1516507217.15,59480,2.19,71618.3,-14.85,-16.03,-15.81,0,*61
1516507218.39,59481,2.13,71606.0,-14.85,-16.03,-15.81,0,*60
1516507219.63,59482,2.19,71612.5,-14.85,-15.95,-15.81,0,*6F
1516507220.88,59483,2.13,71606.8,-14.89,-16.03,-15.81,0,*6E
1516507222.12,59484,2.13,71608.0,-14.85,-16.09,-15.75,0,*64
1516507223.37,59485,2.13,71610.0,-14.85,-16.09,-15.75,0,*65
1516507224.58,59486,2.13,71612.5,-14.85,-16.03,-15.75,0,*6C
1516507225.85,59487,2.13,71618.8,-14.85,-16.09,-15.81,0,*6C
1516507227.11,59488,2.19,71610.0,-14.83,-16.27,-15.99,0,*60
1516507228.34,59489,2.13,71592.3,-14.83,-16.45,-15.99,0,*65
1516507229.6,59490,2.19,71608.3,-14.83,-16.69,-16.03,0,*63
1516507230.86,59491,2.13,71594.5,-14.83,-17.21,-16.45,0,*6D
1516507232.1,59492,2.13,71578.8,-14.83,-17.35,-16.55,0,*6A
1516507233.35,59493,2.19,71580.5,-14.83,-17.59,-16.45,0,*60
1516507234.61,59494,2.13,71586.0,-14.83,-17.45,-16.45,0,*6A
1516507235.87,59495,2.19,71580.3,-14.83,-17.45,-16.55,0,*6A
1516507237.16,59496,2.19,71584.0,-14.83,-17.59,-16.69,0,*6B
1516507238.41,59497,2.13,71596.8,-14.83,-17.93,-17.31,0,*60
1516507239.67,59498,2.19,71594.5,-14.83,-18.25,-17.59,0,*63
1516507240.93,59499,2.13,71598.3,-14.83,-18.35,-17.83,0,*64
1516507242.17,59500,2.13,71596.3,-14.83,-18.69,-18.21,0,*6B
1516507243.41,59501,2.13,71592.5,-14.83,-19.17,-18.49,0,*6C
1516507244.69,59502,2.13,71600.8,-14.83,-19.31,-18.89,0,*67
1516507245.91,59503,2.13,71604.3,-14.85,-19.51,-19.17,0,*60
1516507247.16,59504,2.13,71606.0,-14.83,-19.41,-19.03,0,*65
1516507248.39,59505,2.13,71602.8,-14.83,-19.03,-18.73,0,*64
1516507249.64,59506,2.19,71604.0,-14.83,-18.89,-18.83,0,*6B
1516507250.93,59507,2.13,71620.5,-14.83,-19.41,-19.41,0,*60
1516507252.19,59508,2.13,71620.8,-14.81,-19.57,-19.41,0,*6A
1516507253.42,59509,2.13,71620.0,-14.83,-20.09,-20.05,0,*62
1516507254.66,59510,2.13,71616.0,-14.83,-20.25,-20.25,0,*66
1516507255.89,59511,2.13,71622.8,-14.81,-20.35,-20.25,0,*64
1516507257.1,59512,2.13,71614.5,-14.85,-20.39,-20.09,0,*61
1516507258.36,59513,2.19,71618.8,-14.85,-19.85,-19.61,0,*69
1516507259.62,59514,2.13,71614.3,-14.83,-19.41,-19.13,0,*65
1516507260.89,59515,2.13,71600.8,-14.83,-19.27,-19.03,0,*65
1516507262.1,59516,2.13,71584.8,-14.85,-19.17,-19.17,0,*66
1516507263.33,59517,2.13,71580.8,-14.83,-18.21,-18.21,0,*61
1516507264.62,59518,2.13,71582.5,-14.83,-17.59,-17.63,0,*67
1516507265.85,59519,2.13,71598.8,-14.83,-17.49,-17.49,0,*6F
1516507267.08,59520,2.13,71596.0,-14.83,-17.49,-17.49,0,*65
1516507268.34,59521,2.13,71622.0,-14.83,-17.49,-17.45,0,*68
1516507269.61,59522,2.13,71624.3,-14.83,-17.45,-17.35,0,*60
1516507270.85,59523,2.13,71618.0,-14.81,-17.63,-17.35,0,*67
1516507272.06,59524,2.13,71618.0,-14.81,-17.69,-17.49,0,*61
1516507273.34,59525,2.13,71598.0,-14.83,-17.97,-17.45,0,*6F
1516507274.59,59526,2.13,71576.3,-14.83,-17.83,-17.35,0,*6E
1516507275.84,59527,2.13,71580.5,-14.85,-17.63,-17.21,0,*62
1516507277.11,59528,2.19,71584.0,-14.83,-17.49,-17.07,0,*67
1516507278.39,59529,2.13,71584.0,-14.83,-17.63,-17.17,0,*6F
1516507279.67,59530,2.13,71592.3,-14.83,-17.63,-17.17,0,*67
1516507280.96,59531,2.13,71590.5,-14.83,-17.59,-17.07,0,*6E
1516507282.22,59532,2.13,71584.5,-14.83,-17.45,-16.93,0,*6C
1516507283.45,59533,2.13,71602.0,-14.81,-17.45,-16.89,0,*64
1516507284.69,59534,2.13,71606.3,-14.83,-17.31,-16.75,0,*61
1516507285.96,59535,2.13,71598.5,-14.83,-17.17,-16.75,0,*64
1516507287.19,59536,2.19,71592.3,-14.81,-17.07,-16.89,0,*67
1516507288.45,59537,2.13,71594.0,-14.81,-17.21,-17.21,0,*61
1516507289.69,59538,2.13,71604.3,-14.83,-17.83,-18.07,0,*6F
1516507290.92,59539,2.19,71592.0,-14.81,-18.65,-18.55,0,*6C
1516507292.14,59540,2.13,71576.8,-14.81,-19.17,-18.73,0,*62
1516507293.35,59541,2.13,71588.8,-14.81,-18.99,-18.41,0,*65
1516507294.58,59542,2.13,71598.3,-14.81,-18.41,-17.93,0,*63
1516507295.84,59543,2.13,71584.8,-14.83,-18.41,-17.79,0,*64
1516507297.08,59544,2.13,71590.3,-14.81,-18.11,-17.59,0,*66
1516507298.34,59545,2.13,71596.5,-14.83,-17.83,-17.59,0,*61
1516507299.58,59546,2.19,71606.5,-14.81,-17.59,-17.49,0,*66
1516507300.84,59547,2.13,71604.3,-14.83,-17.59,-17.69,0,*67
1516507302.05,59548,2.13,71602.5,-14.81,-18.07,-18.21,0,*6D
1516507303.25,59549,2.13,71598.3,-14.81,-18.73,-18.83,0,*67
1516507304.49,59550,2.13,71602.3,-14.81,-19.17,-19.31,0,*64
1516507305.76,59551,2.13,71604.0,-14.79,-19.27,-19.37,0,*67
1516507307.03,59552,2.13,71608.5,-14.81,-19.41,-19.57,0,*65
1516507308.3,59553,2.13,71612.0,-14.81,-19.61,-19.57,0,*66
1516507309.56,59554,2.19,71616.8,-14.83,-19.41,-19.17,0,*65
1516507310.8,59555,2.19,71618.8,-14.81,-19.31,-19.17,0,*61
1516507312.03,59556,2.13,71614.3,-14.83,-19.17,-19.03,0,*61
1516507313.27,59557,2.13,71612.0,-14.83,-19.03,-18.73,0,*63
1516507314.5,59558,2.13,71610.3,-14.81,-18.89,-18.73,0,*6D
1516507315.76,59559,2.13,71608.8,-14.83,-18.69,-18.55,0,*64
1516507316.99,59560,2.13,71606.5,-14.81,-18.55,-18.21,0,*60
1516507318.23,59561,2.13,71608.3,-14.83,-18.41,-18.11,0,*65
1516507319.49,59562,2.13,71610.5,-14.83,-18.35,-18.21,0,*66
1516507320.76,59563,2.13,71598.0,-14.83,-18.49,-17.97,0,*6E
1516507322.02,59564,2.13,71592.8,-14.83,-18.55,-18.07,0,*62
1516507323.28,59565,2.13,71596.3,-14.83,-18.69,-17.97,0,*6A
1516507324.54,59566,2.13,71598.0,-14.81,-18.89,-18.35,0,*62
1516507325.77,59567,2.19,71600.0,-14.83,-18.99,-18.25,0,*61
1516507327.0,59568,2.13,71592.0,-14.83,-18.49,-18.07,0,*63
1516507328.26,59569,2.13,71598.8,-14.83,-18.25,-17.93,0,*6A
1516507329.49,59570,2.13,71602.5,-14.81,-18.07,-17.93,0,*60
1516507330.73,59571,2.13,71594.0,-14.81,-17.97,-18.07,0,*65
1516507331.95,59572,2.13,71600.8,-14.81,-18.07,-18.11,0,*67
1516507333.18,59573,2.13,71594.5,-14.83,-18.11,-18.25,0,*64
1516507334.41,59574,2.13,71586.3,-14.83,-18.41,-18.25,0,*66
1516507335.61,59575,2.13,71588.0,-14.81,-18.49,-18.21,0,*69
1516507336.83,59576,2.13,71590.3,-14.81,-18.25,-17.83,0,*67
1516507338.07,59577,2.13,71602.0,-14.81,-18.07,-17.59,0,*61
1516507339.3,59578,2.13,71588.0,-14.83,-17.69,-17.31,0,*65
1516507340.53,59579,2.13,71586.0,-14.81,-17.69,-17.17,0,*62
1516507341.79,59580,2.13,71588.5,-14.81,-17.63,-17.03,0,*6B
1516507343.0,59581,2.13,71598.8,-14.81,-17.49,-16.79,0,*6E
1516507344.24,59582,2.13,71592.8,-14.81,-17.49,-17.03,0,*61
1516507345.52,59583,2.13,71588.8,-14.83,-17.79,-17.45,0,*63
1516507346.8,59584,2.13,71592.0,-14.83,-17.93,-17.63,0,*64
1516507348.04,59585,2.13,71588.8,-14.81,-18.21,-17.97,0,*6A
1516507349.3,59586,2.13,71586.5,-14.81,-18.35,-18.35,0,*6B
1516507350.52,59587,2.13,71588.5,-14.81,-18.69,-18.49,0,*68
1516507351.72,59588,2.13,71592.8,-14.81,-18.65,-18.41,0,*63
1516507352.93,59589,2.13,71590.0,-14.81,-18.65,-18.41,0,*62
1516507354.17,59590,2.13,71590.8,-14.83,-18.83,-18.73,0,*61
1516507355.42,59591,2.13,71586.3,-14.83,-18.65,-18.55,0,*6C
1516507356.66,59592,2.13,71588.5,-14.81,-18.49,-18.55,0,*63
1516507357.88,59593,2.13,71590.0,-14.83,-18.73,-19.03,0,*6B
1516507359.1,59594,2.13,71592.3,-14.81,-18.83,-19.13,0,*60
1516507360.33,59595,2.13,71592.5,-14.83,-18.69,-19.03,0,*66
1516507361.58,59596,2.13,71596.3,-14.83,-18.73,-18.89,0,*6D
1516507362.81,59597,2.13,71596.8,-14.83,-18.49,-18.41,0,*61
1516507364.02,59598,2.13,71594.0,-14.81,-18.41,-18.41,0,*64
1516507365.23,59599,2.13,71598.3,-14.81,-18.65,-18.69,0,*69
1516507366.49,59600,2.13,71602.8,-14.83,-18.69,-18.89,0,*6A
1516507367.74,59601,2.13,71600.5,-14.83,-18.55,-18.83,0,*6E
1516507368.96,59602,2.13,71602.0,-14.83,-18.65,-18.99,0,*65
1516507370.2,59603,2.13,71590.3,-14.81,-18.65,-19.27,0,*62
1516507371.46,59604,2.13,71588.0,-14.83,-18.73,-19.27,0,*60
1516507372.71,59605,2.13,71594.3,-14.83,-18.55,-19.03,0,*63
1516507373.94,59606,2.13,71592.0,-14.83,-18.25,-18.49,0,*68
1516507375.18,59607,2.13,71598.0,-14.81,-18.07,-18.35,0,*60
1516507376.42,59608,2.13,71598.3,-14.81,-17.97,-18.21,0,*6C
1516507377.64,59609,2.13,71594.5,-14.81,-18.07,-18.11,0,*68
1516507378.85,59610,2.13,71596.5,-14.81,-18.25,-18.21,0,*63
1516507380.08,59611,2.13,71588.8,-14.81,-18.69,-18.55,0,*69
1516507381.29,59612,2.13,71602.8,-14.81,-18.49,-18.73,0,*6C
1516507382.5,59613,2.13,71602.0,-14.81,-18.49,-18.49,0,*64
1516507383.73,59614,2.13,71600.5,-14.83,-18.25,-18.41,0,*63
1516507384.97,59615,2.13,71602.0,-14.81,-18.11,-18.35,0,*64
1516507386.2,59616,2.13,71600.8,-14.83,-18.21,-18.49,0,*6D
1516507387.43,59617,2.13,71600.8,-14.83,-18.25,-18.41,0,*60
1516507388.64,59618,2.13,71608.5,-14.81,-18.25,-18.49,0,*65
1516507389.84,59619,2.13,71618.3,-14.81,-18.25,-18.41,0,*6C
1516507391.05,59620,2.13,71610.3,-14.81,-18.65,-18.73,0,*63
1516507392.26,59621,2.13,71612.3,-14.81,-18.73,-18.83,0,*6A
1516507393.47,59622,2.13,71632.0,-14.81,-18.69,-18.83,0,*62
1516507394.7,59623,2.13,71598.8,-14.81,-19.03,-19.27,0,*61
1516507395.93,59624,2.13,71586.5,-14.81,-18.99,-18.89,0,*61
1516507397.17,59625,2.13,71588.0,-14.83,-18.41,-18.41,0,*63
1516507398.42,59626,2.13,71598.0,-14.81,-17.79,-17.79,0,*62
1516507399.68,59627,2.13,71612.3,-14.81,-17.63,-17.59,0,*6A
1516507400.93,59628,2.13,71618.8,-14.81,-17.45,-17.35,0,*6B
1516507402.19,59629,2.13,71610.8,-14.81,-17.21,-17.17,0,*68
1516507403.43,59630,2.13,71614.8,-14.83,-16.75,-16.75,0,*67
1516507404.67,59631,2.13,71616.5,-14.83,-16.59,-16.59,0,*66
1516507405.87,59632,2.13,71614.5,-14.81,-16.45,-16.45,0,*67
1516507407.1,59633,2.13,71612.8,-14.81,-16.31,-16.41,0,*61
1516507408.36,59634,2.13,71602.5,-14.81,-16.31,-16.31,0,*61
1516507409.62,59635,2.13,71596.8,-14.81,-16.27,-16.31,0,*67
1516507410.86,59636,2.13,71610.3,-14.81,-16.27,-16.55,0,*66
1516507412.09,59637,2.13,71602.0,-14.81,-16.27,-16.75,0,*65
1516507413.3,59638,2.13,71598.3,-14.81,-16.45,-16.93,0,*66
1516507414.54,59639,2.13,71588.5,-14.81,-16.59,-17.17,0,*67
1516507415.83,59640,2.13,71586.0,-14.79,-16.65,-17.11,0,*67
1516507417.11,59641,2.13,71578.3,-14.79,-16.69,-17.11,0,*6A
1516507418.36,59642,2.13,71598.0,-14.81,-16.59,-17.07,0,*6A
1516507419.59,59643,2.13,71600.3,-14.79,-16.75,-16.97,0,*6A
1516507420.85,59644,2.13,71592.8,-14.79,-16.89,-17.25,0,*66
1516507422.13,59645,2.13,71594.5,-14.79,-17.25,-17.63,0,*62
1516507423.39,59646,2.13,71592.5,-14.79,-17.87,-18.31,0,*61
1516507424.63,59647,2.13,71588.3,-14.75,-18.17,-18.65,0,*6B
1516507425.89,59648,2.13,71596.5,-14.79,-18.35,-18.69,0,*64
1516507427.12,59649,2.13,71602.8,-14.79,-18.21,-18.49,0,*62
1516507428.36,59650,2.13,71600.0,-14.79,-18.69,-19.13,0,*68
1516507429.62,59651,2.13,71606.3,-14.79,-19.07,-19.27,0,*67
1516507430.85,59652,2.13,71606.3,-14.79,-19.07,-19.37,0,*65
1516507432.06,59653,2.13,71604.0,-14.81,-19.03,-19.47,0,*60
1516507433.3,59654,2.13,71612.3,-14.81,-18.99,-19.31,0,*64
1516507434.5,59655,2.13,71612.8,-14.81,-18.69,-19.03,0,*6B
1516507435.74,59656,2.13,71614.8,-14.81,-18.73,-19.27,0,*65
1516507437.0,59657,2.13,71612.0,-14.79,-18.93,-19.51,0,*6C
1516507438.26,59658,2.13,71616.3,-14.79,-18.79,-19.41,0,*66
1516507439.54,59659,2.13,71624.3,-14.79,-18.59,-18.93,0,*6B
1516507440.79,59660,2.13,71622.3,-14.79,-18.59,-19.07,0,*6D
1516507442.08,59661,2.13,71618.3,-14.79,-18.93,-19.27,0,*68
1516507443.34,59662,2.13,71616.0,-14.79,-18.93,-19.37,0,*6A
1516507444.6,59663,2.13,71620.8,-14.79,-18.93,-19.51,0,*6B
1516507445.84,59664,2.13,71620.0,-14.81,-19.03,-19.57,0,*65
1516507447.05,59665,2.13,71616.8,-14.81,-18.69,-19.47,0,*68
1516507448.31,59666,2.13,71620.5,-14.83,-18.55,-19.17,0,*63
1516507449.59,59667,2.13,71618.0,-14.83,-18.35,-18.89,0,*62
1516507450.79,59668,2.13,71616.8,-14.81,-18.21,-18.25,0,*6C
1516507452.03,59669,2.13,71622.8,-14.81,-18.35,-18.41,0,*6A
1516507453.23,59670,2.13,71622.3,-14.81,-18.11,-18.41,0,*64
1516507454.46,59671,2.13,71622.3,-14.81,-18.35,-18.83,0,*6D
1516507455.72,59672,2.13,71622.5,-14.83,-18.41,-18.89,0,*65
1516507456.95,59673,2.13,71622.8,-14.83,-18.49,-18.69,0,*62
1516507458.19,59674,2.13,71626.8,-14.81,-18.65,-18.55,0,*66
1516507459.42,59675,2.13,71622.3,-14.83,-18.69,-18.69,0,*66
1516507460.63,59676,2.13,71618.5,-14.81,-18.73,-18.69,0,*6C
1516507461.86,59677,2.13,71612.0,-14.81,-18.89,-18.69,0,*68
1516507463.09,59678,2.13,71610.8,-14.81,-18.55,-18.41,0,*6C
1516507464.3,59679,2.13,71610.0,-14.81,-18.41,-18.41,0,*68
1516507465.54,59680,2.13,71604.0,-14.81,-18.65,-18.35,0,*6B
1516507466.77,59681,2.13,71602.5,-14.81,-18.55,-18.21,0,*6C
1516507468.02,59682,2.13,71600.8,-14.81,-18.35,-17.83,0,*6E
1516507469.26,59683,2.13,71600.3,-14.81,-17.97,-17.83,0,*68
1516507470.49,59684,2.13,71594.8,-14.83,-17.69,-17.69,0,*68
1516507471.78,59685,2.13,71594.0,-14.83,-17.59,-17.59,0,*69
1516507473.04,59686,2.13,71596.8,-14.83,-17.35,-17.59,0,*60
1516507474.28,59687,2.13,71596.5,-14.81,-17.31,-17.59,0,*67
1516507475.51,59688,2.13,71606.5,-14.81,-17.45,-18.21,0,*6B
1516507476.81,59689,2.13,71600.5,-14.79,-17.45,-18.31,0,*6C
1516507478.07,59690,2.13,71604.5,-14.79,-17.45,-18.07,0,*61
1516507479.31,59691,2.13,71608.8,-14.81,-17.49,-17.93,0,*69
1516507480.56,59692,2.13,71610.3,-14.83,-17.49,-17.93,0,*68
1516507481.82,59693,2.13,71616.8,-14.81,-17.79,-17.97,0,*6C
1516507483.03,59694,2.13,71612.3,-14.81,-18.21,-18.21,0,*6B
1516507484.24,59695,2.13,71618.0,-14.81,-19.03,-18.73,0,*6C
1516507485.51,59696,2.13,71604.8,-14.81,-19.31,-19.31,0,*69
1516507486.77,59697,2.13,71604.8,-14.81,-19.61,-19.65,0,*6C
1516507488.01,59698,2.13,71604.0,-14.81,-19.65,-19.47,0,*67
1516507489.28,59699,2.13,71610.8,-14.81,-19.57,-19.41,0,*61
1516507490.51,59700,2.13,71604.5,-14.81,-19.41,-19.17,0,*64
1516507491.77,59701,2.13,71608.3,-14.83,-19.13,-18.89,0,*66
1516507492.99,59702,2.13,71618.3,-14.81,-18.99,-18.69,0,*6A
1516507494.24,59703,2.13,71618.3,-14.83,-18.83,-18.55,0,*6D
1516507495.45,59704,2.13,71600.3,-14.81,-18.73,-18.83,0,*6C
1516507496.69,59705,2.13,71592.8,-14.81,-19.13,-19.31,0,*62
1516507497.95,59706,2.13,71594.0,-14.81,-19.41,-19.61,0,*63
1516507499.19,59707,2.13,71592.0,-14.81,-19.61,-19.91,0,*6F
1516507500.45,59708,2.13,71608.3,-14.83,-19.47,-19.81,0,*67
1516507501.69,59709,2.13,71608.3,-14.81,-19.47,-19.61,0,*6A
1516507502.93,59710,2.13,71608.3,-14.81,-19.65,-19.95,0,*69
1516507504.17,59711,2.13,71606.8,-14.83,-19.95,-20.09,0,*6A
1516507505.37,59712,2.13,71604.5,-14.81,-20.05,-19.95,0,*67
1516507506.64,59713,2.13,71614.8,-14.83,-19.95,-20.19,0,*69
1516507507.87,59714,2.13,71616.0,-14.83,-20.09,-20.25,0,*6E
1516507509.11,59715,2.13,71614.5,-14.83,-20.25,-20.25,0,*61
1516507510.39,59716,2.13,71624.8,-14.83,-20.19,-20.19,0,*62
1516507511.67,59717,2.13,71608.0,-14.83,-20.35,-20.35,0,*63
1516507512.92,59718,2.13,71606.3,-14.83,-20.35,-20.09,0,*63
1516507514.2,59719,2.13,71606.8,-14.83,-20.19,-19.81,0,*66
1516507515.45,59720,2.13,71610.0,-14.83,-20.19,-19.91,0,*6D
1516507516.73,59721,2.13,71608.8,-14.83,-20.35,-19.81,0,*63
1516507517.98,59722,2.13,71600.8,-14.83,-20.05,-19.57,0,*68
1516507519.27,59723,2.13,71594.5,-14.83,-19.61,-19.27,0,*66
1516507520.53,59724,2.13,71588.5,-14.83,-19.31,-19.03,0,*62
1516507521.76,59725,2.13,71588.5,-14.85,-19.03,-18.89,0,*67
1516507523.01,59726,2.13,71594.3,-14.85,-18.89,-18.59,0,*6A
1516507524.22,59727,2.13,71606.3,-14.85,-18.73,-18.45,0,*63
1516507525.43,59728,2.13,71604.5,-14.85,-18.73,-18.45,0,*6C
1516507526.66,59729,2.13,71600.0,-14.85,-18.79,-18.55,0,*66
1516507527.94,59730,2.13,71596.0,-14.83,-18.89,-18.55,0,*67
1516507529.15,59731,2.13,71594.3,-14.81,-18.73,-18.49,0,*6C
1516507530.41,59732,2.13,71600.3,-14.83,-18.69,-18.35,0,*6D
1516507531.66,59733,2.13,71602.3,-14.83,-18.55,-18.25,0,*62
1516507532.93,59734,2.13,71596.5,-14.83,-18.35,-18.11,0,*64
1516507534.16,59735,2.13,71588.8,-14.83,-18.25,-18.07,0,*63
1516507535.4,59736,2.13,71596.5,-14.83,-18.21,-17.83,0,*67
1516507536.64,59737,2.13,71604.8,-14.81,-17.97,-17.69,0,*62
1516507537.91,59738,2.13,71618.8,-14.83,-17.83,-17.59,0,*69
1516507539.14,59739,2.13,71624.3,-14.81,-17.69,-17.45,0,*63
1516507540.37,59740,2.13,71610.8,-14.83,-17.69,-17.49,0,*63
1516507541.65,59741,2.13,71582.3,-14.83,-17.79,-17.59,0,*62
1516507542.91,59742,2.13,71582.0,-14.83,-17.83,-17.59,0,*64
1516507544.17,59743,2.13,71582.5,-14.83,-17.59,-17.31,0,*6C
1516507545.43,59744,2.13,71552.8,-14.81,-17.79,-17.45,0,*68
1516507546.68,59745,2.13,71574.8,-14.81,-17.63,-17.17,0,*65
1516507547.94,59746,2.13,71560.5,-14.81,-17.59,-17.17,0,*6F
1516507549.19,59747,2.13,71560.0,-14.83,-17.63,-17.49,0,*6E
1516507550.42,59748,2.13,71566.3,-14.83,-17.69,-17.49,0,*6B
1516507551.65,59749,2.13,71556.5,-14.81,-17.63,-17.49,0,*62
1516507552.93,59750,2.13,71536.5,-14.83,-17.59,-17.45,0,*6D
1516507554.22,59751,2.13,71562.0,-14.83,-17.45,-17.45,0,*61
1516507555.5,59752,2.13,71580.5,-14.83,-17.07,-17.17,0,*63
1516507556.77,59753,2.13,71560.0,-14.81,-17.03,-17.03,0,*61
1516507558.0,59754,2.13,71550.5,-14.83,-16.89,-16.89,0,*64
1516507559.23,59755,2.13,71558.0,-14.83,-16.89,-16.79,0,*6A
1516507560.53,59756,2.13,71554.8,-14.83,-17.07,-17.07,0,*66
1516507561.79,59757,2.13,71548.5,-14.83,-17.35,-17.45,0,*60
1516507563.05,59758,2.13,71550.3,-14.81,-17.59,-17.59,0,*6A
1516507564.31,59759,2.13,71562.3,-14.81,-17.79,-17.79,0,*6B
1516507565.54,59760,2.13,71564.0,-14.81,-18.11,-17.93,0,*64
1516507566.75,59761,2.13,71562.0,-14.81,-18.41,-18.21,0,*66
1516507568.01,59762,2.13,71556.8,-14.81,-18.55,-18.35,0,*65
1516507569.25,59763,2.13,71548.8,-14.81,-18.49,-18.35,0,*69
1516507570.46,59764,2.13,71554.3,-14.81,-18.49,-18.49,0,*65
1516507571.67,59765,2.13,71556.0,-14.81,-18.49,-18.69,0,*66
1516507572.9,59766,2.13,71558.3,-14.83,-18.65,-18.73,0,*62
1516507574.11,59767,2.13,71560.0,-14.81,-18.25,-18.21,0,*62
1516507575.32,59768,2.13,71562.3,-14.81,-18.21,-18.07,0,*6D
1516507576.59,59769,2.13,71576.3,-14.83,-18.07,-17.97,0,*6C
1516507577.85,59770,2.13,71582.5,-14.83,-18.21,-17.97,0,*60
1516507579.09,59771,2.13,71582.5,-14.83,-18.21,-17.83,0,*64
1516507580.3,59772,2.13,71588.5,-14.81,-18.25,-17.83,0,*61
1516507581.52,59773,2.13,71592.3,-14.81,-18.25,-18.07,0,*63
1516507582.75,59774,2.13,71594.8,-14.81,-18.35,-18.21,0,*61
1516507583.98,59775,2.13,71588.3,-14.81,-18.73,-18.55,0,*61
1516507585.19,59776,2.13,71586.3,-14.81,-18.83,-18.83,0,*66
1516507586.39,59777,2.13,71580.3,-14.81,-18.99,-18.99,0,*67
1516507587.62,59778,2.13,71590.8,-14.83,-18.83,-18.99,0,*61
1516507588.87,59779,2.13,71596.8,-14.83,-18.55,-18.83,0,*60
1516507590.1,59780,2.13,71598.5,-14.83,-18.25,-18.41,0,*6F
1516507591.31,59781,2.13,71602.3,-14.81,-18.11,-18.41,0,*6B
1516507592.54,59782,2.13,71602.0,-14.79,-17.87,-18.21,0,*69
1516507593.82,59783,2.13,71604.0,-14.83,-17.59,-17.93,0,*68
1516507595.05,59784,2.13,71614.5,-14.83,-17.31,-17.69,0,*64
1516507596.28,59785,2.13,71614.0,-14.81,-17.31,-17.59,0,*64
1516507597.55,59786,2.13,71612.3,-14.81,-17.21,-17.59,0,*66
1516507598.81,59787,2.13,71604.0,-14.81,-17.21,-17.59,0,*67
1516507600.08,59788,2.13,71600.5,-14.83,-17.03,-17.35,0,*60
1516507601.31,59789,2.13,71602.3,-14.81,-17.03,-17.49,0,*68
1516507602.58,59790,2.13,71598.5,-14.81,-17.21,-17.63,0,*68
1516507603.81,59791,2.13,71592.5,-14.81,-17.49,-17.93,0,*68
1516507605.04,59792,2.13,71596.3,-14.81,-17.63,-18.11,0,*66
1516507606.33,59793,2.13,71598.0,-14.79,-17.45,-17.79,0,*65
1516507607.61,59794,2.13,71602.3,-14.79,-17.45,-17.93,0,*66
1516507608.88,59795,2.13,71600.0,-14.79,-18.21,-18.31,0,*6D
1516507610.14,59796,2.13,71600.5,-14.79,-18.17,-18.31,0,*6B
1516507611.4,59797,2.13,71610.5,-14.79,-17.87,-17.93,0,*6B
1516507612.65,59798,2.13,71608.5,-14.79,-17.79,-18.21,0,*63
1516507613.85,59799,2.13,71604.8,-14.81,-18.65,-19.03,0,*66
1516507615.13,59800,2.13,71598.0,-14.81,-19.31,-19.57,0,*68
1516507616.38,59801,2.13,71600.3,-14.79,-19.07,-19.23,0,*68
1516507617.61,59802,2.13,71600.8,-14.79,-18.79,-18.83,0,*68
1516507618.84,59803,2.13,71590.0,-14.79,-18.49,-18.49,0,*6C
1516507620.05,59804,2.13,71592.8,-14.81,-18.41,-18.41,0,*6C
1516507621.29,59805,2.13,71604.8,-14.81,-18.55,-18.73,0,*69
1516507622.5,59806,2.13,71604.5,-14.81,-19.03,-19.17,0,*6B
1516507623.73,59807,2.13,71600.3,-14.81,-19.03,-19.27,0,*69
1516507625.03,59808,2.13,71606.5,-14.79,-19.27,-19.41,0,*67
1516507626.29,59809,2.13,71600.3,-14.75,-19.23,-19.37,0,*6F
1516507627.58,59810,2.13,71600.5,-14.75,-19.31,-19.23,0,*61
1516507628.8,59811,2.13,71600.0,-14.79,-19.07,-18.99,0,*69
1516507630.09,59812,2.13,71608.3,-14.75,-18.93,-18.89,0,*6B
1516507631.32,59813,2.13,71614.5,-14.79,-18.69,-18.99,0,*62
1516507632.57,59814,2.13,71614.8,-14.79,-18.59,-18.83,0,*6D
1516507633.83,59815,2.13,71614.3,-14.79,-18.35,-18.45,0,*6C
1516507635.11,59816,2.13,71618.0,-14.79,-18.35,-18.35,0,*68
1516507636.37,59817,2.13,71616.5,-14.79,-18.21,-18.35,0,*6C
1516507637.63,59818,2.13,71622.8,-14.79,-18.17,-18.35,0,*66
1516507638.92,59819,2.13,71618.0,-14.79,-18.01,-18.31,0,*64
1516507640.2,59820,2.13,71624.0,-14.79,-17.93,-18.01,0,*69
1516507641.46,59821,2.13,71618.3,-14.79,-17.87,-17.93,0,*69
1516507642.69,59822,2.13,71604.3,-14.75,-17.69,-17.69,0,*63
1516507643.94,59823,2.13,71610.8,-14.75,-17.63,-17.49,0,*6A
1516507645.23,59824,2.13,71614.8,-14.79,-17.55,-17.41,0,*6C
1516507646.52,59825,2.13,71614.5,-14.79,-17.45,-17.45,0,*68
1516507647.8,59826,2.13,71618.8,-14.79,-17.59,-17.59,0,*6B
1516507649.06,59827,2.13,71620.5,-14.79,-17.79,-18.07,0,*6C
1516507650.35,59828,2.13,71628.3,-14.79,-17.93,-18.31,0,*62
1516507651.61,59829,2.13,71626.5,-14.79,-18.31,-18.69,0,*69
1516507652.87,59830,2.13,71628.5,-14.79,-18.35,-18.45,0,*6B
1516507654.13,59831,2.13,71622.3,-14.75,-17.97,-18.11,0,*60
1516507655.42,59832,2.13,71626.3,-14.79,-17.63,-17.59,0,*67
1516507656.7,59833,2.13,71624.3,-14.79,-17.11,-17.03,0,*6C
1516507657.96,59834,2.13,71616.0,-14.75,-16.79,-16.69,0,*65
1516507659.24,59835,2.13,71620.8,-14.75,-16.51,-16.51,0,*65
1516507660.52,59836,2.13,71616.5,-14.75,-16.31,-16.17,0,*62
1516507661.79,59837,2.13,71608.5,-14.75,-16.09,-15.95,0,*61
1516507663.05,59838,2.13,71602.3,-14.75,-16.13,-16.03,0,*69
1516507664.32,59839,2.13,71598.5,-14.75,-15.89,-15.95,0,*64
1516507665.6,59840,2.13,71592.5,-14.79,-15.85,-15.85,0,*6B
1516507666.89,59841,2.13,71594.8,-14.75,-15.81,-15.89,0,*6E
1516507668.12,59842,2.13,71598.3,-14.75,-15.75,-15.67,0,*66
1516507669.4,59843,2.13,71600.8,-14.79,-15.81,-15.81,0,*68
1516507670.64,59844,2.13,71602.0,-14.75,-15.67,-15.75,0,*60
1516507671.91,59845,2.13,71604.5,-14.75,-15.75,-15.81,0,*69
1516507673.14,59846,2.13,71594.0,-14.75,-15.67,-15.75,0,*62
1516507674.38,59847,2.13,71602.0,-14.75,-15.67,-15.75,0,*63
1516507675.65,59848,2.13,71606.0,-14.75,-15.75,-15.81,0,*64
1516507676.89,59849,2.13,71610.3,-14.75,-15.75,-15.95,0,*60
1516507678.17,59850,2.13,71610.8,-14.75,-15.81,-16.09,0,*65
1516507679.43,59851,2.13,71604.8,-14.75,-16.03,-16.31,0,*66
1516507680.71,59852,2.13,71602.8,-14.75,-16.23,-16.65,0,*66
1516507681.97,59853,2.13,71600.8,-14.75,-16.45,-16.69,0,*6B
1516507683.26,59854,2.13,71602.0,-14.75,-16.65,-17.11,0,*60
1516507684.5,59855,2.13,71598.5,-14.73,-16.93,-17.41,0,*6B
1516507685.75,59856,2.13,71600.0,-14.75,-17.25,-17.49,0,*6A
1516507686.99,59857,2.13,71598.3,-14.75,-17.49,-17.73,0,*68
1516507688.24,59858,2.13,71604.5,-14.75,-17.73,-18.01,0,*64
1516507689.51,59859,2.13,71604.0,-14.75,-17.97,-18.11,0,*6E
1516507690.77,59860,2.13,71616.5,-14.75,-18.11,-18.31,0,*67
1516507692.05,59861,2.13,71626.8,-14.75,-18.31,-18.59,0,*6A
1516507693.31,59862,2.13,71600.5,-14.75,-18.79,-18.93,0,*63
1516507694.56,59863,2.13,71578.3,-14.75,-18.93,-19.07,0,*6A
1516507695.8,59864,2.13,71562.8,-14.75,-18.45,-18.41,0,*65
1516507697.09,59865,2.13,71572.8,-14.75,-18.31,-18.31,0,*60
1516507698.35,59866,2.13,71586.8,-14.75,-18.25,-18.01,0,*65